Location: Waco, TX
(31.5480°N, 97.1670°W)
Time: 17:46:50
(UTC-06:00)

ISS - Pass Details

Date: 20 January 2019
Orbit: 404 x 410 km, 51.6° (Epoch: 24 January)

Event Time Altitude Azimuth Distance (km) Brightness Sun altitude
Rises 02:02:26 0° 335° (NNW) 2,340 - -68.2°
Maximum altitude 02:06:51 11° 31° (NNE) 1,439 - -67.4°
Drops below altitude 10° 02:07:37 10° 44° (NE) 1,474 - -67.2°
Sets 02:11:14 0° 86° (E) 2,331 - -66.5°
